STARLINK-5896 (55930 NORAD) Tracking and Keplerian Element Data

This shows tracking and keplerian element data for the satellite.

Feedback or suggestion? Click here.




ElementValue
Catalog55930
NameSTARLINK-5896
Epoch Orbit839
Epoch Day126.86858003
Epoch Year2023
RAAN40.2133
Inclination70.0003
Eccentricity0.0003863
Argument of Perigee262.0429
Mean Anonmoly98.0328
Mean Motion15.69939004
Decay Rate2.496E-05
L11 55930U 23037S 23126.86858003 .00002496 00000+0 22506-4 0 9998
L22 55930 70.0003 40.2133 0003863 262.0429 98.0328 15.69939004 8398



Live tracking and technical data element details for STARLINK-5896 (NORAD 55930). STARLINK-5896 can be tracked NOW for your location showing map with azimuth and elevation plus other details from your city location.







IsCatalogInMostPopularTable: catalog: 55930, numindb: 8
Update: records affected: 1



GetName: 55930 STARLINK-5896

Hit Count: updated at: Tue, 06 Jun 2023 03:40:34 GMT